Participated 1 time
in 1937
Pierre Allès, France
Tour de France 2026 starts from Barcelona, Spain in

Stats and Facts from
Tour de France.

2026   2025   2024   2023  2022  2021  2020  2019   2018  2017   2016   2015  2014  2013   2012   2011  2010   2009   2008   2007   2006   2005   2004   2003   2002   2001   2000   1999   1998   1997  1996   1995   1994   1993   1992  1991   1990   1989   1988   1987   1986   1985   1984   1983  1982  1981   1980   1979  1978  1977   1976  1975  1974  1973   1972   1971   1970  1969   1968   1967   1966   1965  1964  1963   1962   1961   1960   1959   1958   1957  1956   1955   1954   1953   1952  1951  1950  1949   1948  1947  1939   1938   1937   1936   1935   1934   1933  1932   1931   1930  1929   1928   1927   1926  1925  1924  1923   1922   1921   1920   1919  1914   1913   1912   1911   1910  1909   1908   1907   1906  1905  1904   1903 

Tourstats
Sitemap

After stage 21 - 2025:
 16451 starters.
  5464 different riders.
  689 teams.
  2398 stages.
  470 restdays.
  466506.50 km.
  5925 abandoned riders.

Click map for 1952 route.
Facts from Tour de France 1952 Additional info and images from 1952.
  |   Stages.  |   Stage winners.  |   Days in jerseys.  |   Teams.  |   All riders.  |   All riders by age.  |   All riders from.  |  

  |   Rookies.  |   Withdrawls.  |   Average speed.  |   GC.  |   Polka  |   Green  |   White  |   Summits. (In tour)  |   Miscellaneous.  |  

Stage 22 on July 18th. 1952
Pick a stage:  1  2  3  4  5  6  7  8  9  10  11  12  13  14  15  16  17  18  19  20  21  22  23  

After stage 22:    Fausto Coppi  
  Clermont-FerrandVichy | Dist: 63.50km. | Winner: Fiorenzo Magni

Podium

Average speed for all riders in stage:  38,782 km./hr.

1
 Fiorenzo Magni  Italy01h 33' 11"=40,887  km/h

2
 Stan Ockers  Belgium01h 33' 13"+  00:00:02 =40,873  km/h

3
 Andrea Carrea  Italy01h 34' 16"+  00:01:05 =40,417  km/h

4  Giovanni Corrieri  Italy01h 34' 18"+  00:01:07 =40,403  km/h

5  Wim van Est  Holland01h 34' 31"+  00:01:20 =40,310  km/h

6  Lucien Teisseire  France01h 34' 44"+  00:01:33 =40,218  km/h

7  Ahmed Kebaïli  North Africa01h 34' 46"+  00:01:35 =40,204  km/h

8  Bernardo Ruíz  Spain01h 34' 55"+  00:01:44 =40,140  km/h

9  Roger Decock  Belgium01h 34' 59"+  00:01:48 =40,112  km/h

10  Alexandre Close  Belgium01h 35' 41"+  00:02:30 =39,819  km/h

11  Jean Goldschmit  Luxembourg01h 35' 42"+  00:02:31 =39,812  km/h

12  Nello Lauredi  France01h 35' 56"+  00:02:45 =39,715  km/h

13  Franco Franchi  Italy01h 36' 05"+  00:02:54 =39,653  km/h

14  Fausto Coppi  Italy01h 36' 10"+  00:02:59 =39,619  km/h

15  José Gil Sole  Spain01h 36' 10"+  00:02:59 =39,619  km/h

16  Marcel Zelasco  North Africa01h 36' 13"+  00:03:02 =39,598  km/h

17  Giulio Bresci  Italy01h 36' 19"+  00:03:08 =39,557  km/h

18  Bernard Gauthier  France01h 36' 21"+  00:03:10 =39,543  km/h

19  Vincent Soler  North Africa01h 36' 32"+  00:03:21 =39,468  km/h

20  Gino Bartali  Italy01h 36' 35"+  00:03:24 =39,448  km/h

21  Luciano Pezzi  Italy01h 36' 46"+  00:03:35 =39,373  km/h

22  Siro Bianchi  Sud Est01h 36' 48"+  00:03:37 =39,360  km/h

23  Antonin Rolland  France01h 36' 49"+  00:03:38 =39,353  km/h

24  Jacques Vivier  Ouest-Sud Ouest01h 36' 58"+  00:03:47 =39,292  km/h

25  Georges Decaux  Paris01h 37' 07"+  00:03:56 =39,231  km/h

26  Mario Baroni  Italy01h 37' 07"+  00:03:56 =39,231  km/h

27  Raphaël Geminiani  France01h 37' 14"+  00:04:03 =39,184  km/h

28  Henri Paret  North Africa01h 37' 14"+  00:04:03 =39,184  km/h

29  Giuseppe Mirando  Sud Est01h 37' 21"+  00:04:10 =39,137  km/h

30  Raoul Remy  France01h 37' 22"+  00:04:11 =39,130  km/h

31  Adolphe Pezzuli  Sud Est01h 37' 23"+  00:04:12 =39,124  km/h

32  André Rosseel  Belgium01h 37' 51"+  00:04:40 =38,937  km/h

33  Adolphe Deledda  Nord Est-Centre01h 37' 59"+  00:04:48 =38,884  km/h

34  Eduard Van Ende  Belgium01h 38' 00"+  00:04:49 =38,878  km/h

35  Maurice Quentin  France01h 38' 02"+  00:04:51 =38,864  km/h

36  Noel Lajoie  Nord Est-Centre01h 38' 04"+  00:04:53 =38,851  km/h

37  Heinrich Spuhler  Switzerland01h 38' 05"+  00:04:54 =38,845  km/h

38  Vincent Vitetta  Sud Est01h 38' 07"+  00:04:56 =38,831  km/h

39  Fiorenzo Crippa  Italy01h 38' 10"+  00:04:59 =38,812  km/h

40  Gerrit Voorting  Holland01h 38' 14"+  00:05:03 =38,785  km/h

41  Maurice Neyt  Belgium01h 38' 14"+  00:05:03 =38,785  km/h

42  Jean Robic  France01h 38' 16"+  00:05:05 =38,772  km/h

43  Jean-Baptiste Dotto  France01h 38' 21"+  00:05:10 =38,739  km/h

44  Gilbert Bauvin  Nord Est-Centre01h 38' 21"+  00:05:10 =38,739  km/h

45  Antonio Gelabert  Spain01h 38' 26"+  00:05:15 =38,706  km/h

46  Paul Giguet  Sud Est01h 38' 36"+  00:05:25 =38,641  km/h

47  Ettore Milano  Italy01h 38' 38"+  00:05:27 =38,628  km/h

48  Jean Delahaye  Ouest-Sud Ouest01h 38' 40"+  00:05:29 =38,615  km/h

49  Alfredo Martini  Italy01h 38' 58"+  00:05:47 =38,498  km/h

50  Andrès Trobat  Spain01h 39' 01"+  00:05:50 =38,478  km/h

51  Robert Bonnaventure  France01h 39' 02"+  00:05:51 =38,472  km/h

52  Gottfried Weilenmann  Switzerland01h 39' 03"+  00:05:52 =38,465  km/h

53  Wout Wagtmans  Holland01h 39' 03"+  00:05:52 =38,465  km/h

54  Jacques Renaud  Paris01h 39' 19"+  00:06:08 =38,362  km/h

55  Jean Le Guilly  Ouest-Sud Ouest01h 39' 20"+  00:06:09 =38,356  km/h

56  Marcel Fernandez  North Africa01h 39' 23"+  00:06:12 =38,336  km/h

57  Rene Rotta  Sud Est01h 39' 23"+  00:06:12 =38,336  km/h

58  Jean Bertaina  Sud Est01h 39' 24"+  00:06:13 =38,330  km/h

59  Jean Malléjac  Ouest-Sud Ouest01h 39' 29"+  00:06:18 =38,298  km/h

60  Walter Diggelmann  Switzerland01h 39' 30"+  00:06:19 =38,291  km/h

61  Pierre Pardoën  Nord Est-Centre01h 39' 36"+  00:06:25 =38,253  km/h

62  Alois De Hertog  Belgium01h 39' 50"+  00:06:39 =38,164  km/h

63  Hans Dekkers  Holland01h 39' 58"+  00:06:47 =38,113  km/h

64  José Serra Gil  Spain01h 40' 04"+  00:06:53 =38,075  km/h

65  Raymond Scardin  Ouest-Sud Ouest01h 40' 08"+  00:06:57 =38,049  km/h

66  Jan Nolten  Holland01h 40' 12"+  00:07:01 =38,024  km/h

67  Francisco Masip  Spain01h 40' 43"+  00:07:32 =37,829  km/h

68  Lucien Lazarides  France01h 40' 54"+  00:07:43 =37,760  km/h

69  Roger Rossinelli  Nord Est-Centre01h 41' 13"+  00:08:02 =37,642  km/h

70  Johny Goedert  Luxembourg01h 41' 35"+  00:08:24 =37,506  km/h

71  Settimo Sabbadini  Ouest-Sud Ouest01h 41' 43"+  00:08:32 =37,457  km/h

72  Henk Faanhof  Holland01h 41' 45"+  00:08:34 =37,445  km/h

73  Carlo Lafranchi  Switzerland01h 42' 04"+  00:08:53 =37,329  km/h

74  Jacques Marinelli  Paris01h 42' 41"+  00:09:30 =37,104  km/h

75  Hein Van Breenen  Holland01h 42' 53"+  00:09:42 =37,032  km/h

76  Jean De Gribaldy  Nord Est-Centre01h 42' 55"+  00:09:44 =37,020  km/h

77  André Bernard  Ouest-Sud Ouest01h 44' 18"+  00:11:07 =36,529  km/h

78  Thijs Roks  Holland01h 44' 29"+  00:11:18 =36,465  km/h


Todays birthdays.

1889 • Adolphe Landon
1890 • Jules Lebreton
1904 • Julien Grujon
1909 • Erich Metze
1926 • Giovanni Rossi
1928 • Serge Blusson
1928 • Alois Vansteenkiste
1931 • André Dupré
1934 • Alfred Rüegg
1962 • Francisco Espinosa
1962 • Paul Kimmage
1963 • Federico Muñoz
1966 • Andrea Tafi
1971 • Emmanuel Magnien
1973 • Paolo Savoldelli
1985 • Mikhail Ignatyev

 

Optimized for Chrome - Edge
and Opera browsers.